EW8485 Weather Reports


Display with metric or nautical units.
time (UTC)temp
F
wind
direction
speed
MPH
gust
MPH
rain 1hr
in
rain 24hr
in
rain mn
in
humidity
%
barometer
mb
20260506170449 82 124 1.0 6.0 0.00 0.00 0.00 86 1006.9
20260506164557 81 148 1.0 4.0 0.00 0.00 0.00 88 1006.9
20260506164054 81 73 1.0 6.0 0.00 0.00 0.00 89 1006.8
20260506163554 81 100 1.0 6.0 0.00 0.00 0.00 89 1006.8
20260506163048 80 120 1.0 5.0 0.00 0.00 0.00 89 1006.7
20260506162546 81 99 0.0 3.0 0.00 0.00 0.00 89 1006.7
20260506162046 81 102 0.0 2.0 0.00 0.00 0.00 89 1006.7
20260506161542 81 102 0.0 2.0 0.00 0.00 0.00 89 1006.6
20260506161044 80 127 0.0 2.0 0.00 0.00 0.00 90 1006.6
20260506160535 80 142 0.0 3.0 0.00 0.00 0.00 91 1006.5
20260506160038 80 84 1.0 4.0 0.00 0.00 0.00 92 1006.5
20260506155536 79 94 1.0 4.0 0.00 0.00 0.00 91 1006.5
20260506155039 79 73 1.0 3.0 0.00 0.00 0.00 92 1006.5
20260506154536 79 89 1.0 3.0 0.00 0.00 0.00 92 1006.5
20260506154039 79 102 1.0 4.0 0.00 0.00 0.00 92 1006.5
20260506153530 78 120 1.0 4.0 0.00 0.00 0.00 92 1006.5
20260506153040 79 95 1.0 4.0 0.00 0.00 0.00 92 1006.2
20260506153032 79 93 1.0 4.0 0.00 0.00 0.00 92 1006.3
20260506152035 79 148 1.0 4.0 0.00 0.00 0.00 92 1006.1
20260506151530 79 119 1.0 3.0 0.00 0.00 0.00 92 1006.1
20260506151050 79 105 1.0 3.0 0.00 0.00 0.00 92 1006.2
20260506150528 79 84 1.0 4.0 0.00 0.00 0.00 91 1006.1
20260506150030 79 73 1.0 4.0 0.00 0.00 0.00 91 1006.0
20260506145523 79 76 1.0 4.0 0.00 0.00 0.00 91 1005.9
20260506145316 79 150 1.0 4.0 0.00 0.00 0.00 91 1005.7
20260506144524 79 98 1.0 6.0 0.00 0.00 0.00 91 1005.6
20260506144028 79 119 1.0 6.0 0.00 0.00 0.00 91 1005.5
20260506143537 79 84 1.0 5.0 0.00 0.00 0.00 91 1005.4
20260506143521 79 167 1.0 6.0 0.00 0.00 0.00 91 1005.4
20260506142519 79 133 1.0 5.0 0.00 0.00 0.00 91 1005.4
20260506142032 79 119 1.0 4.0 0.00 0.00 0.00 91 1005.5
20260506141750 78 88 1.0 4.0 0.00 0.00 0.00 92 1005.5
20260506141302 78 78 1.0 4.0 0.00 0.00 0.00 92 1005.5
20260506140511 78 117 1.0 6.0 0.00 0.00 0.00 92 1005.7
20260506140018 78 89 1.0 6.0 0.00 0.00 0.00 92 1005.7
20260506135511 78 141 1.0 3.0 0.00 0.00 0.00 93 1005.7
20260506135250 78 114 1.0 0.0 0.00 0.00 0.00 94 1005.7